RS29S (SXC3-2110 CYCLO*) (53373 NORAD) Tracking and Keplerian Element Data

This shows tracking and keplerian element data for the satellite.

Feedback or suggestion? Click here.




ElementValue
Catalog53373
NameRS29S (SXC3-2110 CYCLO*)
Epoch Orbit744
Epoch Day270.15591113
Epoch Year2022
RAAN171.2609
Inclination97.4316
Eccentricity0.000328
Argument of Perigee55.8715
Mean Anonmoly82.388
Mean Motion15.25177917
Decay Rate9.783E-05
L11 53373U 22096D 22270.15591113 .00009783 00000+0 39264-3 0 9992
L22 53373 97.4316 171.2609 0003280 55.8715 82.3880 15.25177917 7442

Live tracking and technical data element details for RS29S (SXC3-2110 CYCLO*) (NORAD 53373). RS29S (SXC3-2110 CYCLO*) can be tracked NOW for your location showing map with azimuth and elevation plus other details from your city location.

Track the satellite on the map from your city or location and see movement details for azimuth, elevation, latitude, longitude, range, height, and movement on the map or in text.







IsCatalogInMostPopularTable: catalog: 53373, numindb: 2
Update: records affected: 1



GetName: 53373 RS29S (SXC3-2110 CYCLO*)

Hit Count: updated at: Thu, 29 Sep 2022 12:23:31 GMT